Home > Weather > Ghent > Past weeks

Flag for Belgium Past Weather in Ghent, Belgium — Yesterday and Last 2 Weeks

Now
77 °F

Warm.


Feels Like: 79 °F
Forecast: 59 / 77 °F
Wind: 3 mph from Southwest

Location: Munte

Current Time: Jul 24, 2016 at 4:54:45 PM

Latest Report: Jul 24, 2016 at 4:00 PM


Visibility: 13 mi

Pressure: 30.11 "Hg

Humidity: 47%

Dew Point: 55 °F

Location of GhentLocation

Past Weather in Ghent — Graph

°F

Ghent Temperature Yesterday

Maximum temperature yesterday: 72 °F (at 7:00 PM)
Minimum temperature yesterday: 63 °F (at 4:00 AM)
Average temperature yesterday: 66 °F

High & Low Weather Summary for the Past Weeks

 TemperatureHumidityPressure
High88 °F (Jul 19, 5:00 PM)100% (Jul 23, 4:00 AM)30.32 "Hg (Jul 23, 4:00 AM)
Low51 °F (Jul 15, 2:00 AM)40% (Jul 10, 3:00 PM)29.80 "Hg (Jul 10, 6:00 PM)
Average67 °F73%30.06 "Hg
* Reported Jul 9 3:00 PM — Jul 24 3:00 PM, Ghent, Weather by CustomWeather, © 2016

Note: Actual official high and low records may vary slightly from our data, if they occured in-between our weather recording intervals... More about our weather records

Advertising

Ghent Weather History for the Previous 24 Hours

Scroll right to see more
 ConditionsComfort  
Time TempWeatherWind HumidityBarometerVisibility
3:00 PM
Sun, Jul 24
76 °FMild.3 mph52%30.12 "Hg12 mi
2:00 PM75 °FMild.3 mph54%30.13 "Hg12 mi
1:00 PM73 °FMild.3 mph58%30.14 "Hg12 mi
12:00 PM71 °FMild.2 mph65%30.14 "Hg12 mi
11:00 AM68 °FMild.2 mph66%30.15 "Hg12 mi
3:00 AM58 °FFog.N/A99%30.16 "Hg1 mi
2:00 AM58 °FDuststorm.N/A98%30.17 "Hg0 mi
1:00 AM60 °FFog.N/A96%30.17 "Hg2 mi
12:00 AM61 °FFog.N/A93%30.17 "Hg2 mi
11:00 PM
Sat, Jul 23
63 °FMild.N/A91%30.16 "Hg4 mi
10:00 PM65 °FMild.N/A87%30.14 "Hg6 mi
9:00 PM67 °FMild.N/A80%30.14 "Hg7 mi
8:00 PM69 °FMild.2 mph76%30.13 "Hg7 mi
7:00 PM72 °FMild.2 mph73%30.13 "Hg6 mi
5:00 PM71 °FMild.2 mph78%30.13 "Hg6 mi
4:00 PM69 °FMild.2 mph82%30.14 "Hg4 mi
Weather by CustomWeather, © 2016

See weather overviewHow to use our weather pages